Location: G�ppingen
(48.7089°N, 9.6563°E)
Time: 17:14:04
(UTC+01:00)

Tiangong 2 - Visible Passes

Search period start: 19 February 2018 00:00
Search period end: 01 March 2018 00:00
Orbit: 384 x 388 km, 42.8° (Epoch: 19 February)

Date Brightness Start Highest point End Pass type
(mag) Time Alt. Az. Time Alt. Az. Time Alt. Az.
19 Feb 3.1 19:12:06 10° WSW 19:14:36 21° SSW 19:16:18 14° SSE visible
20 Feb 3.8 19:50:43 10° SW 19:51:57 12° SSW 19:52:35 11° SSW visible
21 Feb 3.7 18:51:09 10° WSW 18:53:14 16° SSW 18:55:20 10° SSE visible
23 Feb 4.1 18:30:38 10° SW 18:31:48 12° SSW 18:32:59 10° S visible
